TimeCDT,TemperatureF,Dew PointF,Humidity,Sea Level PressureIn,VisibilityMPH,Wind Direction,Wind SpeedMPH,Gust SpeedMPH,PrecipitationIn,Events,Conditions,WindDirDegrees,DateUTC
12:45 AM,69.8,68.0,94,29.60,5.0,SSW,11.5,-,N/A,,Overcast,210,2013-03-24 05:45:00
12:56 AM,70.0,68.0,93,29.59,5.0,SW,11.5,19.6,N/A,,Overcast,220,2013-03-24 05:56:00
1:56 AM,71.1,68.0,90,29.59,6.0,SW,17.3,25.3,N/A,,Overcast,230,2013-03-24 06:56:00
2:56 AM,70.0,66.9,90,29.58,5.0,WSW,9.2,21.9,0.00,Rain,Light Rain,240,2013-03-24 07:56:00
3:56 AM,70.0,66.9,90,29.58,5.0,WSW,6.9,16.1,0.00,,Overcast,240,2013-03-24 08:56:00
4:56 AM,68.0,64.0,87,29.59,8.0,NW,10.4,18.4,N/A,,Overcast,320,2013-03-24 09:56:00
5:06 AM,66.2,62.6,88,29.59,10.0,NW,8.1,20.7,N/A,,Overcast,310,2013-03-24 10:06:00
5:32 AM,62.6,59.0,88,29.61,10.0,NNW,10.4,-,N/A,,Scattered Clouds,340,2013-03-24 10:32:00
5:56 AM,62.1,57.9,86,29.62,6.0,NW,6.9,-,N/A,,Scattered Clouds,320,2013-03-24 10:56:00
6:31 AM,60.8,57.2,88,29.63,10.0,NW,3.5,-,N/A,,Scattered Clouds,310,2013-03-24 11:31:00
6:56 AM,59.0,57.0,93,29.62,10.0,Calm,Calm,-,N/A,,Partly Cloudy,0,2013-03-24 11:56:00
7:56 AM,61.0,57.9,90,29.62,10.0,Calm,Calm,-,N/A,,Partly Cloudy,0,2013-03-24 12:56:00
8:56 AM,64.0,57.9,80,29.66,10.0,West,3.5,-,N/A,,Partly Cloudy,260,2013-03-24 13:56:00
9:56 AM,68.0,57.9,70,29.70,10.0,West,6.9,-,N/A,,Clear,270,2013-03-24 14:56:00
10:56 AM,73.0,57.9,59,29.70,10.0,Variable,5.8,-,N/A,,Partly Cloudy,0,2013-03-24 15:56:00
11:56 AM,75.9,55.9,50,29.69,10.0,West,8.1,-,N/A,,Partly Cloudy,280,2013-03-24 16:56:00
12:56 PM,79.0,57.0,47,29.68,10.0,WSW,11.5,17.3,N/A,,Partly Cloudy,250,2013-03-24 17:56:00
1:56 PM,77.0,55.9,48,29.67,10.0,West,12.7,24.2,N/A,,Partly Cloudy,270,2013-03-24 18:56:00
2:56 PM,75.9,55.9,50,29.68,10.0,WNW,11.5,25.3,N/A,,Partly Cloudy,290,2013-03-24 19:56:00
3:56 PM,71.1,52.0,51,29.68,10.0,WNW,16.1,24.2,N/A,,Partly Cloudy,300,2013-03-24 20:56:00
4:56 PM,68.0,48.9,50,29.70,10.0,WNW,16.1,27.6,N/A,,Partly Cloudy,290,2013-03-24 21:56:00
5:56 PM,66.0,42.1,42,29.73,10.0,WNW,11.5,27.6,N/A,,Partly Cloudy,300,2013-03-24 22:56:00
6:56 PM,63.0,34.0,34,29.76,10.0,WNW,13.8,26.5,N/A,,Partly Cloudy,300,2013-03-24 23:56:00
7:56 PM,59.0,30.9,35,29.82,10.0,NW,15.0,26.5,N/A,,Partly Cloudy,310,2013-03-25 00:56:00
8:56 PM,55.0,28.0,35,29.86,10.0,NW,12.7,25.3,N/A,,Partly Cloudy,320,2013-03-25 01:56:00
9:56 PM,52.0,30.9,45,29.90,10.0,NW,13.8,26.5,N/A,,Partly Cloudy,320,2013-03-25 02:56:00
10:56 PM,48.9,32.0,52,29.94,10.0,NW,10.4,-,N/A,,Partly Cloudy,320,2013-03-25 03:56:00
11:56 PM,46.9,28.9,50,29.96,10.0,NW,10.4,21.9,N/A,,Clear,320,2013-03-25 04:56:00